| time (UTC) | temp F | wind direction | speed MPH | gust MPH | rain 1hr in | rain 24hr in | rain mn in | humidity % | barometer mb |
| 20260508192004 | 65 | 316 | 7.0 | 11.0 | 0.00 | 0.00 | 0.00 | 78 | 1010.3 |
| 20260508191504 | 65 | 309 | 7.0 | 11.0 | 0.00 | 0.00 | 0.00 | 77 | 1010.3 |
| 20260508191004 | 65 | 318 | 8.0 | 13.0 | 0.00 | 0.00 | 0.00 | 77 | 1010.3 |
| 20260508190503 | 65 | 319 | 9.0 | 13.0 | 0.00 | 0.00 | 0.00 | 77 | 1010.3 |
| 20260508190214 | 65 | 317 | 9.0 | 13.0 | 0.00 | 0.00 | 0.00 | 77 | 1010.3 |
| 20260508185503 | 65 | 319 | 8.0 | 11.0 | 0.00 | 0.00 | 0.00 | 78 | 1010.3 |
| 20260508185215 | 65 | 319 | 9.0 | 11.0 | 0.00 | 0.00 | 0.00 | 78 | 1010.3 |
| 20260508184504 | 66 | 321 | 9.0 | 10.0 | 0.00 | 0.00 | 0.00 | 78 | 1010.3 |
| 20260508184217 | 66 | 321 | 9.0 | 11.0 | 0.00 | 0.00 | 0.00 | 77 | 1010.3 |
| 20260508183503 | 66 | 314 | 9.0 | 11.0 | 0.00 | 0.00 | 0.00 | 77 | 1010.3 |
| 20260508183003 | 66 | 311 | 8.0 | 11.0 | 0.00 | 0.00 | 0.00 | 77 | 1010.3 |
| 20260508182504 | 66 | 308 | 8.0 | 11.0 | 0.00 | 0.00 | 0.00 | 77 | 1009.3 |
| 20260508182003 | 66 | 307 | 9.0 | 11.0 | 0.00 | 0.00 | 0.00 | 77 | 1009.3 |
| 20260508181503 | 66 | 306 | 9.0 | 12.0 | 0.00 | 0.00 | 0.00 | 76 | 1009.3 |
| 20260508181003 | 66 | 302 | 9.0 | 12.0 | 0.00 | 0.00 | 0.00 | 76 | 1009.3 |
| 20260508180503 | 66 | 309 | 10.0 | 12.0 | 0.00 | 0.00 | 0.00 | 76 | 1009.3 |
| 20260508180003 | 66 | 309 | 10.0 | 12.0 | 0.00 | 0.00 | 0.00 | 76 | 1009.3 |
| 20260508175503 | 67 | 303 | 11.0 | 13.0 | 0.00 | 0.00 | 0.00 | 76 | 1009.3 |
| 20260508175004 | 67 | 300 | 11.0 | 16.0 | 0.00 | 0.00 | 0.00 | 76 | 1009.3 |
| 20260508174503 | 67 | 300 | 13.0 | 18.0 | 0.00 | 0.00 | 0.00 | 76 | 1009.3 |
| 20260508174003 | 67 | 295 | 13.0 | 18.0 | 0.00 | 0.00 | 0.00 | 76 | 1009.3 |
| 20260508173504 | 67 | 295 | 13.0 | 15.0 | 0.00 | 0.00 | 0.00 | 75 | 1009.3 |
| 20260508173004 | 68 | 301 | 13.0 | 17.0 | 0.00 | 0.00 | 0.00 | 75 | 1009.3 |
| 20260508172505 | 68 | 295 | 12.0 | 17.0 | 0.00 | 0.00 | 0.00 | 75 | 1009.3 |
| 20260508172004 | 68 | 289 | 12.0 | 15.0 | 0.00 | 0.00 | 0.00 | 74 | 1009.3 |
| 20260508171504 | 68 | 301 | 13.0 | 19.0 | 0.00 | 0.00 | 0.00 | 74 | 1009.3 |
| 20260508171215 | 68 | 297 | 13.0 | 19.0 | 0.00 | 0.00 | 0.00 | 74 | 1009.3 |
| 20260508170504 | 69 | 289 | 14.0 | 18.0 | 0.00 | 0.00 | 0.00 | 74 | 1009.3 |
| 20260508170004 | 69 | 285 | 14.0 | 18.0 | 0.00 | 0.00 | 0.00 | 73 | 1009.3 |
| 20260508165713 | 69 | 283 | 13.0 | 18.0 | 0.00 | 0.00 | 0.00 | 73 | 1009.3 |
| 20260508165004 | 69 | 290 | 14.0 | 18.0 | 0.00 | 0.00 | 0.00 | 72 | 1009.3 |
| 20260508164505 | 69 | 285 | 15.0 | 18.0 | 0.00 | 0.00 | 0.00 | 72 | 1009.3 |
| 20260508164004 | 69 | 275 | 12.0 | 16.0 | 0.00 | 0.00 | 0.00 | 72 | 1009.3 |
| 20260508163504 | 70 | 278 | 12.0 | 15.0 | 0.00 | 0.00 | 0.00 | 72 | 1009.3 |
| 20260508163004 | 70 | 273 | 12.0 | 15.0 | 0.00 | 0.00 | 0.00 | 72 | 1009.3 |
| 20260508162504 | 70 | 270 | 12.0 | 15.0 | 0.00 | 0.00 | 0.00 | 72 | 1009.3 |
| 20260508162004 | 70 | 279 | 12.0 | 17.0 | 0.00 | 0.00 | 0.00 | 72 | 1009.3 |
| 20260508161504 | 70 | 286 | 11.0 | 17.0 | 0.00 | 0.00 | 0.00 | 73 | 1009.3 |
| 20260508161004 | 70 | 289 | 10.0 | 14.0 | 0.00 | 0.00 | 0.00 | 72 | 1009.3 |
| 20260508160504 | 70 | 289 | 9.0 | 14.0 | 0.00 | 0.00 | 0.00 | 73 | 1009.3 |
| 20260508160004 | 70 | 279 | 10.0 | 14.0 | 0.00 | 0.00 | 0.00 | 73 | 1009.3 |
| 20260508155504 | 70 | 283 | 12.0 | 17.0 | 0.00 | 0.00 | 0.00 | 73 | 1009.3 |
| 20260508155217 | 70 | 285 | 12.0 | 17.0 | 0.00 | 0.00 | 0.00 | 73 | 1009.3 |
| 20260508154504 | 70 | 281 | 14.0 | 19.0 | 0.00 | 0.00 | 0.00 | 72 | 1009.3 |
| 20260508154213 | 70 | 278 | 14.0 | 19.0 | 0.00 | 0.00 | 0.00 | 72 | 1009.3 |
| 20260508153503 | 70 | 285 | 11.0 | 17.0 | 0.00 | 0.00 | 0.00 | 72 | 1009.3 |
| 20260508153003 | 70 | 287 | 11.0 | 20.0 | 0.00 | 0.00 | 0.00 | 71 | 1009.3 |
| 20260508152504 | 70 | 279 | 12.0 | 20.0 | 0.00 | 0.00 | 0.00 | 70 | 1009.3 |
| 20260508152215 | 71 | 282 | 12.0 | 17.0 | 0.00 | 0.00 | 0.00 | 70 | 1009.3 |
| 20260508151504 | 71 | 285 | 12.0 | 17.0 | 0.00 | 0.00 | 0.00 | 70 | 1009.3 |
| 20260508151003 | 71 | 280 | 12.0 | 15.0 | 0.00 | 0.00 | 0.00 | 71 | 1009.3 |
| 20260508150503 | 71 | 275 | 13.0 | 15.0 | 0.00 | 0.00 | 0.00 | 70 | 1009.3 |
| 20260508150004 | 71 | 281 | 13.0 | 15.0 | 0.00 | 0.00 | 0.00 | 70 | 1009.3 |
| 20260508145503 | 71 | 283 | 12.0 | 15.0 | 0.00 | 0.00 | 0.00 | 71 | 1009.3 |
| 20260508145213 | 71 | 287 | 12.0 | 14.0 | 0.00 | 0.00 | 0.00 | 71 | 1009.3 |
| 20260508144504 | 71 | 280 | 12.0 | 16.0 | 0.00 | 0.00 | 0.00 | 71 | 1009.3 |
| 20260508144003 | 71 | 275 | 11.0 | 16.0 | 0.00 | 0.00 | 0.00 | 71 | 1009.3 |
| 20260508143503 | 71 | 272 | 12.0 | 20.0 | 0.00 | 0.00 | 0.00 | 71 | 1009.3 |
| 20260508143003 | 71 | 279 | 13.0 | 20.0 | 0.00 | 0.00 | 0.00 | 71 | 1009.3 |
| 20260508142503 | 71 | 270 | 11.0 | 16.0 | 0.00 | 0.00 | 0.00 | 70 | 1009.3 |
| 20260508142215 | 72 | 273 | 11.0 | 15.0 | 0.00 | 0.00 | 0.00 | 70 | 1009.3 |
| 20260508141503 | 71 | 283 | 12.0 | 15.0 | 0.00 | 0.00 | 0.00 | 71 | 1009.3 |
| 20260508141003 | 71 | 270 | 12.0 | 21.0 | 0.00 | 0.00 | 0.00 | 71 | 1009.3 |
| 20260508140503 | 71 | 266 | 13.0 | 21.0 | 0.00 | 0.00 | 0.00 | 71 | 1009.3 |
| 20260508140004 | 71 | 276 | 13.0 | 21.0 | 0.00 | 0.00 | 0.00 | 70 | 1009.3 |
| 20260508135504 | 71 | 277 | 11.0 | 17.0 | 0.00 | 0.00 | 0.00 | 71 | 1009.3 |
| 20260508135005 | 71 | 280 | 12.0 | 17.0 | 0.00 | 0.00 | 0.00 | 70 | 1009.3 |
| 20260508134505 | 71 | 268 | 13.0 | 17.0 | 0.00 | 0.00 | 0.00 | 70 | 1009.3 |
| 20260508134004 | 71 | 253 | 12.0 | 18.0 | 0.00 | 0.00 | 0.00 | 69 | 1009.3 |
| 20260508133504 | 71 | 252 | 12.0 | 21.0 | 0.00 | 0.00 | 0.00 | 69 | 1009.3 |
| 20260508133004 | 71 | 249 | 12.0 | 21.0 | 0.00 | 0.00 | 0.00 | 69 | 1009.3 |
| 20260508132504 | 71 | 256 | 11.0 | 17.0 | 0.00 | 0.00 | 0.00 | 69 | 1009.3 |
| 20260508132004 | 71 | 265 | 12.0 | 17.0 | 0.00 | 0.00 | 0.00 | 68 | 1009.3 |
| 20260508131504 | 71 | 266 | 12.0 | 15.0 | 0.00 | 0.00 | 0.00 | 67 | 1009.3 |
| 20260508131217 | 71 | 261 | 12.0 | 17.0 | 0.00 | 0.00 | 0.00 | 67 | 1009.3 |
| 20260508130510 | 71 | 264 | 11.0 | 17.0 | 0.00 | 0.00 | 0.00 | 69 | 1009.3 |
| 20260508130004 | 71 | 267 | 12.0 | 20.0 | 0.00 | 0.00 | 0.00 | 68 | 1009.3 |
| 20260508125504 | 71 | 287 | 14.0 | 20.0 | 0.00 | 0.00 | 0.00 | 71 | 1009.3 |
| 20260508125005 | 70 | 234 | 15.0 | 24.0 | 0.00 | 0.00 | 0.00 | 71 | 1009.3 |
| 20260508124504 | 70 | 208 | 14.0 | 24.0 | 0.00 | 0.00 | 0.00 | 72 | 1009.3 |
| 20260508124215 | 71 | 208 | 14.0 | 24.0 | 0.00 | 0.00 | 0.00 | 72 | 1009.3 |
| 20260508123504 | 71 | 195 | 12.0 | 15.0 | 0.00 | 0.00 | 0.00 | 73 | 1009.3 |
| 20260508123216 | 71 | 222 | 11.0 | 18.0 | 0.00 | 0.00 | 0.00 | 73 | 1009.3 |
| 20260508122504 | 70 | 239 | 15.0 | 21.0 | 0.00 | 0.00 | 0.00 | 72 | 1009.3 |
| 20260508122004 | 70 | 209 | 14.0 | 21.0 | 0.00 | 0.00 | 0.00 | 73 | 1009.3 |
| 20260508121504 | 71 | 192 | 13.0 | 19.0 | 0.00 | 0.00 | 0.00 | 73 | 1009.3 |
| 20260508121218 | 71 | 203 | 12.0 | 19.0 | 0.00 | 0.00 | 0.00 | 73 | 1009.3 |
| 20260508120716 | 71 | 245 | 13.0 | 15.0 | 0.00 | 0.00 | 0.00 | 72 | 1009.3 |
| 20260508120004 | 70 | 269 | 13.0 | 18.0 | 0.00 | 0.00 | 0.00 | 71 | 1009.3 |
| 20260508115717 | 70 | 256 | 14.0 | 26.0 | 0.00 | 0.00 | 0.00 | 72 | 1009.3 |
| 20260508115004 | 70 | 238 | 17.0 | 26.0 | 0.00 | 0.00 | 0.00 | 73 | 1009.3 |
| 20260508114503 | 69 | 213 | 15.0 | 21.0 | 0.00 | 0.00 | 0.00 | 74 | 1009.3 |
| 20260508114004 | 69 | 187 | 16.0 | 22.0 | 0.00 | 0.00 | 0.00 | 75 | 1009.3 |
| 20260508113503 | 69 | 186 | 15.0 | 22.0 | 0.00 | 0.00 | 0.00 | 75 | 1009.3 |
| 20260508113004 | 69 | 208 | 16.0 | 22.0 | 0.00 | 0.00 | 0.00 | 74 | 1009.3 |
| 20260508112503 | 69 | 214 | 16.0 | 21.0 | 0.00 | 0.00 | 0.00 | 75 | 1009.3 |
| 20260508112003 | 69 | 215 | 14.0 | 18.0 | 0.00 | 0.00 | 0.00 | 75 | 1009.3 |
| 20260508111503 | 69 | 218 | 14.0 | 21.0 | 0.00 | 0.00 | 0.00 | 75 | 1009.3 |
| 20260508111003 | 69 | 214 | 13.0 | 21.0 | 0.00 | 0.00 | 0.00 | 75 | 1009.3 |
| 20260508110503 | 69 | 238 | 12.0 | 15.0 | 0.00 | 0.00 | 0.00 | 75 | 1009.3 |
| 20260508110004 | 70 | 243 | 13.0 | 19.0 | 0.00 | 0.00 | 0.00 | 75 | 1009.3 |
| 20260508105503 | 69 | 191 | 12.0 | 19.0 | 0.00 | 0.00 | 0.00 | 75 | 1009.3 |
| 20260508105003 | 70 | 180 | 11.0 | 14.0 | 0.00 | 0.00 | 0.00 | 75 | 1009.3 |
| 20260508104503 | 69 | 184 | 12.0 | 14.0 | 0.00 | 0.00 | 0.00 | 75 | 1009.3 |
| 20260508104003 | 69 | 235 | 12.0 | 14.0 | 0.00 | 0.00 | 0.00 | 75 | 1009.3 |
| 20260508103503 | 69 | 236 | 12.0 | 14.0 | 0.00 | 0.00 | 0.00 | 75 | 1009.3 |
| 20260508103004 | 70 | 201 | 11.0 | 14.0 | 0.00 | 0.00 | 0.00 | 75 | 1009.3 |
| 20260508102503 | 70 | 219 | 12.0 | 15.0 | 0.00 | 0.00 | 0.00 | 75 | 1009.3 |
| 20260508102213 | 70 | 233 | 12.0 | 15.0 | 0.00 | 0.00 | 0.00 | 75 | 1009.3 |
| 20260508101504 | 70 | 224 | 12.0 | 17.0 | 0.00 | 0.00 | 0.00 | 75 | 1009.3 |
| 20260508101004 | 69 | 217 | 12.0 | 17.0 | 0.00 | 0.00 | 0.00 | 75 | 1009.3 |
| 20260508100504 | 69 | 233 | 11.0 | 15.0 | 0.00 | 0.00 | 0.00 | 75 | 1009.3 |
| 20260508100004 | 69 | 208 | 11.0 | 16.0 | 0.00 | 0.00 | 0.00 | 76 | 1009.3 |
| 20260508095504 | 69 | 191 | 11.0 | 16.0 | 0.00 | 0.00 | 0.00 | 75 | 1009.3 |
| 20260508095004 | 69 | 202 | 9.0 | 15.0 | 0.00 | 0.00 | 0.00 | 76 | 1009.3 |
| 20260508094504 | 69 | 243 | 9.0 | 15.0 | 0.00 | 0.00 | 0.00 | 76 | 1009.3 |
| 20260508094217 | 69 | 216 | 10.0 | 15.0 | 0.00 | 0.00 | 0.00 | 76 | 1009.3 |
| 20260508093504 | 69 | 200 | 11.0 | 15.0 | 0.00 | 0.00 | 0.00 | 76 | 1008.3 |
| 20260508093004 | 69 | 205 | 9.0 | 12.0 | 0.00 | 0.00 | 0.00 | 76 | 1008.3 |
| 20260508092504 | 69 | 197 | 8.0 | 12.0 | 0.00 | 0.00 | 0.00 | 76 | 1008.3 |
| 20260508092004 | 68 | 208 | 8.0 | 14.0 | 0.00 | 0.00 | 0.00 | 76 | 1008.3 |
| 20260508091504 | 69 | 200 | 9.0 | 14.0 | 0.00 | 0.00 | 0.00 | 77 | 1008.3 |
| 20260508091004 | 68 | 191 | 9.0 | 12.0 | 0.00 | 0.00 | 0.00 | 77 | 1008.3 |
| 20260508090504 | 68 | 219 | 9.0 | 14.0 | 0.00 | 0.00 | 0.00 | 77 | 1008.3 |
| 20260508090004 | 68 | 200 | 11.0 | 14.0 | 0.00 | 0.00 | 0.00 | 78 | 1008.3 |
| 20260508085504 | 68 | 180 | 11.0 | 14.0 | 0.00 | 0.00 | 0.00 | 78 | 1008.3 |
| 20260508085003 | 69 | 180 | 11.0 | 14.0 | 0.00 | 0.00 | 0.00 | 78 | 1008.3 |
| 20260508084504 | 69 | 180 | 10.0 | 14.0 | 0.00 | 0.00 | 0.00 | 79 | 1008.3 |
| 20260508084004 | 69 | 186 | 9.0 | 12.0 | 0.00 | 0.00 | 0.00 | 79 | 1008.3 |
| 20260508083506 | 68 | 189 | 10.0 | 14.0 | 0.00 | 0.00 | 0.00 | 79 | 1008.3 |
| 20260508083004 | 68 | 187 | 9.0 | 14.0 | 0.00 | 0.00 | 0.00 | 79 | 1008.3 |
| 20260508082504 | 68 | 184 | 9.0 | 14.0 | 0.00 | 0.00 | 0.00 | 79 | 1008.3 |
| 20260508082004 | 67 | 180 | 9.0 | 11.0 | 0.00 | 0.00 | 0.00 | 79 | 1008.3 |
| 20260508081504 | 68 | 180 | 9.0 | 11.0 | 0.00 | 0.00 | 0.00 | 79 | 1008.3 |
| 20260508081215 | 68 | 180 | 8.0 | 10.0 | 0.00 | 0.00 | 0.00 | 79 | 1008.3 |
| 20260508080713 | 68 | 178 | 6.0 | 9.0 | 0.00 | 0.00 | 0.00 | 79 | 1008.3 |
| 20260508080004 | 67 | 174 | 7.0 | 9.0 | 0.00 | 0.00 | 0.00 | 79 | 1008.3 |
| 20260508075504 | 67 | 175 | 8.0 | 9.0 | 0.00 | 0.00 | 0.00 | 79 | 1008.3 |
| 20260508075003 | 67 | 180 | 6.0 | 9.0 | 0.00 | 0.00 | 0.00 | 79 | 1008.3 |
| 20260508074715 | 67 | 179 | 6.0 | 9.0 | 0.00 | 0.00 | 0.00 | 79 | 1008.3 |
| 20260508074003 | 68 | 179 | 5.0 | 6.0 | 0.00 | 0.00 | 0.00 | 80 | 1007.3 |
| 20260508073503 | 68 | 172 | 4.0 | 6.0 | 0.00 | 0.00 | 0.00 | 80 | 1007.3 |
| 20260508073003 | 67 | 164 | 4.0 | 6.0 | 0.00 | 0.00 | 0.00 | 80 | 1007.3 |
| 20260508072503 | 68 | 163 | 4.0 | 5.0 | 0.00 | 0.00 | 0.00 | 80 | 1007.3 |
| 20260508072004 | 67 | 169 | 4.0 | 6.0 | 0.00 | 0.00 | 0.00 | 80 | 1007.3 |
| 20260508071503 | 67 | 180 | 4.0 | 6.0 | 0.00 | 0.00 | 0.00 | 80 | 1007.3 |
| 20260508071003 | 67 | 184 | 5.0 | 7.0 | 0.00 | 0.00 | 0.00 | 80 | 1007.3 |
| 20260508070503 | 66 | 165 | 5.0 | 7.0 | 0.00 | 0.00 | 0.00 | 79 | 1007.3 |
| 20260508070004 | 67 | 148 | 5.0 | 6.0 | 0.00 | 0.00 | 0.00 | 80 | 1007.3 |
| 20260508065503 | 67 | 164 | 5.0 | 6.0 | 0.00 | 0.00 | 0.00 | 80 | 1008.3 |
| 20260508065005 | 67 | 171 | 5.0 | 6.0 | 0.00 | 0.00 | 0.00 | 80 | 1008.3 |
| 20260508064503 | 67 | 168 | 4.0 | 5.0 | 0.00 | 0.00 | 0.00 | 80 | 1008.3 |
| 20260508064004 | 67 | 167 | 3.0 | 5.0 | 0.00 | 0.00 | 0.00 | 80 | 1007.3 |
| 20260508063503 | 67 | 162 | 3.0 | 5.0 | 0.00 | 0.00 | 0.00 | 80 | 1007.3 |
| 20260508063215 | 67 | 158 | 2.0 | 5.0 | 0.00 | 0.00 | 0.00 | 80 | 1007.3 |
| 20260508062503 | 67 | 119 | 2.0 | 5.0 | 0.00 | 0.00 | 0.00 | 81 | 1007.3 |
| 20260508062215 | 67 | 114 | 3.0 | 5.0 | 0.00 | 0.00 | 0.00 | 81 | 1007.3 |
| 20260508061504 | 67 | 94 | 3.0 | 5.0 | 0.00 | 0.00 | 0.00 | 81 | 1007.3 |
| 20260508061004 | 66 | 101 | 3.0 | 5.0 | 0.00 | 0.00 | 0.00 | 81 | 1007.3 |
| 20260508060504 | 66 | 120 | 3.0 | 4.0 | 0.00 | 0.00 | 0.00 | 82 | 1007.3 |
| 20260508060004 | 66 | 128 | 2.0 | 4.0 | 0.00 | 0.00 | 0.00 | 82 | 1007.3 |
| 20260508055715 | 66 | 106 | 1.0 | 4.0 | 0.00 | 0.00 | 0.00 | 82 | 1007.3 |
| 20260508055004 | 65 | 90 | 0.0 | 2.0 | 0.00 | 0.00 | 0.00 | 82 | 1007.3 |
| 20260508054716 | 65 | 90 | 0.0 | 2.0 | 0.00 | 0.00 | 0.00 | 82 | 1007.3 |
| 20260508054004 | 65 | 94 | 1.0 | 2.0 | 0.00 | 0.00 | 0.00 | 82 | 1007.3 |
| 20260508053504 | 64 | 111 | 1.0 | 4.0 | 0.00 | 0.00 | 0.00 | 83 | 1007.3 |
| 20260508053215 | 64 | 122 | 2.0 | 4.0 | 0.00 | 0.00 | 0.00 | 83 | 1007.3 |
| 20260508052713 | 64 | 141 | 2.0 | 4.0 | 0.00 | 0.00 | 0.00 | 83 | 1007.3 |
| 20260508052004 | 63 | 147 | 0.0 | 2.0 | 0.00 | 0.00 | 0.00 | 83 | 1007.3 |
| 20260508051504 | 63 | 0 | 0.0 | 0.0 | 0.00 | 0.00 | 0.00 | 83 | 1007.3 |
| 20260508051004 | 63 | 45 | 0.0 | 2.0 | 0.00 | 0.00 | 0.00 | 83 | 1006.3 |
| 20260508050504 | 63 | 45 | 0.0 | 2.0 | 0.00 | 0.00 | 0.00 | 83 | 1006.3 |
| 20260508050004 | 62 | 45 | 0.0 | 2.0 | 0.00 | 0.00 | 0.00 | 84 | 1006.3 |
| 20260508045504 | 62 | 45 | 0.0 | 2.0 | 0.00 | 0.00 | 0.00 | 84 | 1006.3 |
| 20260508045214 | 62 | 45 | 0.0 | 2.0 | 0.00 | 0.00 | 0.00 | 84 | 1006.3 |
| 20260508044504 | 62 | 0 | 0.0 | 0.0 | 0.00 | 0.00 | 0.00 | 84 | 1006.3 |
| 20260508044004 | 62 | 0 | 0.0 | 0.0 | 0.00 | 0.00 | 0.00 | 84 | 1006.3 |
| 20260508043504 | 62 | 0 | 0.0 | 0.0 | 0.00 | 0.00 | 0.00 | 84 | 1006.3 |
| 20260508043004 | 62 | 0 | 0.0 | 0.0 | 0.00 | 0.00 | 0.00 | 84 | 1006.3 |
| 20260508042504 | 62 | 0 | 0.0 | 0.0 | 0.00 | 0.00 | 0.00 | 84 | 1006.3 |
| 20260508042004 | 62 | 0 | 0.0 | 0.0 | 0.00 | 0.00 | 0.00 | 84 | 1006.3 |
| 20260508041505 | 62 | 0 | 0.0 | 0.0 | 0.00 | 0.00 | 0.00 | 84 | 1006.3 |
| 20260508041003 | 61 | 0 | 0.0 | 0.0 | 0.00 | 0.00 | 0.00 | 84 | 1006.3 |
| 20260508040716 | 61 | 0 | 0.0 | 0.0 | 0.00 | 0.00 | 0.00 | 84 | 1006.3 |
| 20260508040214 | 61 | 360 | 0.0 | 1.0 | 0.00 | 0.00 | 0.00 | 83 | 1006.3 |
| 20260508035504 | 61 | 360 | 0.0 | 2.0 | 0.00 | 0.00 | 0.00 | 83 | 1006.3 |
| 20260508035215 | 61 | 360 | 0.0 | 2.0 | 0.00 | 0.00 | 0.00 | 83 | 1006.3 |
| 20260508034717 | 61 | 360 | 1.0 | 2.0 | 0.00 | 0.00 | 0.00 | 83 | 1006.3 |
| 20260508034004 | 61 | 1 | 1.0 | 2.0 | 0.00 | 0.00 | 0.00 | 83 | 1006.3 |
| 20260508033713 | 62 | 6 | 1.0 | 2.0 | 0.00 | 0.00 | 0.00 | 83 | 1006.3 |
| 20260508033216 | 62 | 32 | 2.0 | 3.0 | 0.00 | 0.00 | 0.00 | 84 | 1006.3 |
| 20260508032503 | 62 | 45 | 2.0 | 3.0 | 0.00 | 0.00 | 0.00 | 84 | 1005.3 |
| 20260508032003 | 62 | 45 | 2.0 | 3.0 | 0.00 | 0.00 | 0.00 | 84 | 1005.3 |
| 20260508031504 | 62 | 45 | 2.0 | 4.0 | 0.00 | 0.00 | 0.00 | 84 | 1005.3 |
| 20260508031003 | 62 | 45 | 2.0 | 4.0 | 0.00 | 0.00 | 0.00 | 84 | 1005.3 |
| 20260508030716 | 62 | 45 | 2.0 | 4.0 | 0.00 | 0.00 | 0.00 | 84 | 1005.3 |
| 20260508030003 | 62 | 45 | 1.0 | 3.0 | 0.00 | 0.00 | 0.00 | 84 | 1005.3 |
| 20260508025718 | 62 | 45 | 1.0 | 3.0 | 0.00 | 0.00 | 0.00 | 84 | 1005.3 |
| 20260508025215 | 62 | 55 | 2.0 | 3.0 | 0.00 | 0.00 | 0.00 | 84 | 1005.3 |
| 20260508024503 | 62 | 53 | 1.0 | 3.0 | 0.00 | 0.00 | 0.00 | 84 | 1005.3 |
| 20260508024003 | 62 | 22 | 1.0 | 2.0 | 0.00 | 0.00 | 0.00 | 84 | 1005.3 |
| 20260508023714 | 62 | 22 | 1.0 | 3.0 | 0.00 | 0.00 | 0.00 | 84 | 1005.3 |
| 20260508023004 | 62 | 22 | 1.0 | 3.0 | 0.00 | 0.00 | 0.00 | 84 | 1005.3 |
| 20260508022505 | 62 | 21 | 1.0 | 3.0 | 0.00 | 0.00 | 0.00 | 84 | 1005.3 |
| 20260508022004 | 62 | 14 | 1.0 | 3.0 | 0.00 | 0.00 | 0.00 | 84 | 1005.3 |
| 20260508021716 | 62 | 11 | 1.0 | 3.0 | 0.00 | 0.00 | 0.00 | 84 | 1005.3 |
| 20260508021004 | 63 | 0 | 0.0 | 0.0 | 0.00 | 0.00 | 0.00 | 84 | 1005.3 |
| 20260508020504 | 63 | 45 | 0.0 | 2.0 | 0.00 | 0.00 | 0.00 | 84 | 1005.3 |
| 20260508020004 | 63 | 45 | 0.0 | 2.0 | 0.00 | 0.00 | 0.00 | 83 | 1005.3 |
| 20260508015505 | 63 | 45 | 0.0 | 2.0 | 0.00 | 0.00 | 0.00 | 83 | 1005.3 |
| 20260508015004 | 63 | 45 | 0.0 | 2.0 | 0.00 | 0.00 | 0.00 | 83 | 1005.3 |
| 20260508014504 | 63 | 45 | 1.0 | 2.0 | 0.00 | 0.00 | 0.00 | 83 | 1005.3 |
| 20260508014004 | 63 | 45 | 2.0 | 4.0 | 0.00 | 0.00 | 0.00 | 83 | 1005.3 |
| 20260508013504 | 63 | 38 | 2.0 | 4.0 | 0.00 | 0.00 | 0.00 | 83 | 1005.3 |
| 20260508013218 | 63 | 30 | 1.0 | 3.0 | 0.00 | 0.00 | 0.00 | 83 | 1005.3 |
| 20260508012716 | 63 | 360 | 1.0 | 2.0 | 0.00 | 0.00 | 0.00 | 82 | 1005.3 |
| 20260508012004 | 63 | 360 | 0.0 | 2.0 | 0.00 | 0.00 | 0.00 | 82 | 1005.3 |
| 20260508011504 | 63 | 0 | 0.0 | 0.0 | 0.00 | 0.00 | 0.00 | 82 | 1005.3 |
| 20260508011004 | 64 | 360 | 0.0 | 2.0 | 0.00 | 0.00 | 0.00 | 81 | 1005.3 |
| 20260508010504 | 64 | 360 | 1.0 | 2.0 | 0.00 | 0.00 | 0.00 | 81 | 1005.3 |
| 20260508010005 | 64 | 360 | 1.0 | 2.0 | 0.00 | 0.00 | 0.00 | 81 | 1005.3 |
| 20260508005504 | 64 | 360 | 0.0 | 2.0 | 0.00 | 0.00 | 0.00 | 81 | 1005.3 |
| 20260508005004 | 64 | 0 | 0.0 | 0.0 | 0.00 | 0.00 | 0.00 | 81 | 1005.3 |
| 20260508004504 | 64 | 0 | 0.0 | 0.0 | 0.00 | 0.00 | 0.00 | 80 | 1005.3 |
| 20260508004217 | 64 | 0 | 0.0 | 0.0 | 0.00 | 0.00 | 0.00 | 80 | 1005.3 |
| 20260508003504 | 64 | 0 | 0.0 | 0.0 | 0.00 | 0.00 | 0.00 | 80 | 1005.3 |
| 20260508003213 | 64 | 0 | 0.0 | 0.0 | 0.00 | 0.00 | 0.00 | 80 | 1005.3 |
| 20260508002504 | 64 | 0 | 0.0 | 0.0 | 0.00 | 0.00 | 0.00 | 80 | 1005.3 |
| 20260508002004 | 64 | 360 | 0.0 | 2.0 | 0.00 | 0.00 | 0.00 | 79 | 1005.3 |
| 20260508001504 | 64 | 360 | 1.0 | 2.0 | 0.00 | 0.00 | 0.00 | 79 | 1005.3 |
| 20260508001004 | 64 | 360 | 0.0 | 1.0 | 0.00 | 0.00 | 0.00 | 79 | 1005.3 |
| 20260508000713 | 64 | 360 | 0.0 | 2.0 | 0.00 | 0.00 | 0.00 | 79 | 1005.3 |
| 20260508000004 | 64 | 360 | 1.0 | 3.0 | 0.00 | 0.00 | 0.00 | 79 | 1005.3 |
| 20260507235714 | 64 | 360 | 1.0 | 3.0 | 0.00 | 0.00 | 0.00 | 79 | 1005.3 |
| 20260507235004 | 64 | 357 | 1.0 | 3.0 | 0.00 | 0.00 | 0.00 | 79 | 1006.3 |
| 20260507234503 | 64 | 323 | 1.0 | 3.0 | 0.00 | 0.00 | 0.00 | 78 | 1006.3 |
| 20260507234004 | 65 | 320 | 1.0 | 3.0 | 0.00 | 0.00 | 0.00 | 78 | 1006.3 |
| 20260507233503 | 65 | 315 | 0.0 | 2.0 | 0.00 | 0.00 | 0.00 | 78 | 1006.3 |
| 20260507233003 | 65 | 315 | 0.0 | 2.0 | 0.00 | 0.00 | 0.00 | 78 | 1006.3 |
| 20260507232503 | 65 | 315 | 0.0 | 2.0 | 0.00 | 0.00 | 0.00 | 78 | 1006.3 |
| 20260507232003 | 65 | 315 | 0.0 | 2.0 | 0.00 | 0.00 | 0.00 | 78 | 1006.3 |
| 20260507231713 | 65 | 315 | 1.0 | 2.0 | 0.00 | 0.00 | 0.00 | 78 | 1006.3 |
| 20260507231005 | 65 | 322 | 1.0 | 3.0 | 0.00 | 0.00 | 0.00 | 78 | 1006.3 |
| 20260507230505 | 65 | 0 | 0.0 | 0.0 | 0.00 | 0.00 | 0.00 | 78 | 1006.3 |
| 20260507230004 | 65 | 180 | 0.0 | 2.0 | 0.00 | 0.00 | 0.00 | 78 | 1006.3 |
| 20260507225715 | 65 | 194 | 0.0 | 2.0 | 0.00 | 0.00 | 0.00 | 78 | 1006.3 |
| 20260507225003 | 65 | 284 | 1.0 | 2.0 | 0.00 | 0.00 | 0.00 | 78 | 1007.3 |
| 20260507224505 | 65 | 270 | 1.0 | 2.0 | 0.00 | 0.00 | 0.00 | 77 | 1007.3 |
| 20260507224005 | 65 | 270 | 0.0 | 1.0 | 0.00 | 0.00 | 0.00 | 77 | 1007.3 |
| 20260507223503 | 65 | 315 | 0.0 | 1.0 | 0.00 | 0.00 | 0.00 | 77 | 1007.3 |
| 20260507223003 | 65 | 301 | 1.0 | 4.0 | 0.00 | 0.00 | 0.00 | 77 | 1007.3 |
| 20260507222503 | 65 | 288 | 2.0 | 4.0 | 0.00 | 0.00 | 0.00 | 77 | 1007.3 |
| 20260507222004 | 65 | 277 | 2.0 | 4.0 | 0.00 | 0.00 | 0.00 | 77 | 1007.3 |
| 20260507221504 | 65 | 277 | 2.0 | 4.0 | 0.00 | 0.00 | 0.00 | 77 | 1007.3 |
| 20260507221004 | 65 | 277 | 4.0 | 6.0 | 0.00 | 0.00 | 0.00 | 77 | 1007.3 |
| 20260507220504 | 65 | 276 | 5.0 | 6.0 | 0.00 | 0.00 | 0.00 | 77 | 1007.3 |
| 20260507220004 | 65 | 273 | 4.0 | 6.0 | 0.00 | 0.00 | 0.00 | 76 | 1007.3 |
| 20260507215504 | 65 | 271 | 5.0 | 6.0 | 0.00 | 0.00 | 0.00 | 76 | 1007.3 |
| 20260507215004 | 65 | 273 | 5.0 | 6.0 | 0.00 | 0.00 | 0.00 | 76 | 1007.3 |
| 20260507214505 | 65 | 272 | 5.0 | 8.0 | 0.00 | 0.00 | 0.00 | 76 | 1007.3 |
| 20260507214214 | 65 | 272 | 5.0 | 8.0 | 0.00 | 0.00 | 0.00 | 76 | 1007.3 |
| 20260507213504 | 65 | 258 | 6.0 | 8.0 | 0.00 | 0.00 | 0.00 | 76 | 1007.3 |
| 20260507213215 | 65 | 249 | 6.0 | 8.0 | 0.00 | 0.00 | 0.00 | 76 | 1007.3 |
| 20260507212504 | 65 | 262 | 5.0 | 7.0 | 0.00 | 0.00 | 0.00 | 75 | 1006.3 |
| 20260507212004 | 65 | 264 | 4.0 | 7.0 | 0.00 | 0.00 | 0.00 | 75 | 1006.3 |
| 20260507211505 | 65 | 264 | 4.0 | 5.0 | 0.00 | 0.00 | 0.00 | 75 | 1006.3 |
| 20260507211004 | 65 | 271 | 5.0 | 8.0 | 0.00 | 0.00 | 0.00 | 75 | 1006.3 |
| 20260507210504 | 65 | 272 | 6.0 | 8.0 | 0.00 | 0.00 | 0.00 | 75 | 1006.3 |
| 20260507210213 | 65 | 274 | 6.0 | 8.0 | 0.00 | 0.00 | 0.00 | 75 | 1006.3 |
| 20260507205504 | 66 | 293 | 5.0 | 8.0 | 0.00 | 0.00 | 0.00 | 75 | 1005.3 |
| 20260507205004 | 66 | 302 | 5.0 | 8.0 | 0.00 | 0.00 | 0.00 | 74 | 1005.3 |
| 20260507204717 | 66 | 307 | 5.0 | 8.0 | 0.00 | 0.00 | 0.00 | 74 | 1005.3 |
| 20260507204004 | 66 | 315 | 3.0 | 5.0 | 0.00 | 0.00 | 0.00 | 74 | 1005.3 |
| 20260507203504 | 66 | 315 | 3.0 | 4.0 | 0.00 | 0.00 | 0.00 | 74 | 1005.3 |
| 20260507203004 | 66 | 315 | 2.0 | 3.0 | 0.00 | 0.00 | 0.00 | 74 | 1005.3 |
| 20260507202503 | 66 | 315 | 2.0 | 3.0 | 0.00 | 0.00 | 0.00 | 74 | 1005.3 |
| 20260507202004 | 66 | 315 | 2.0 | 3.0 | 0.00 | 0.00 | 0.00 | 73 | 1005.3 |
| 20260507201504 | 66 | 315 | 2.0 | 3.0 | 0.00 | 0.00 | 0.00 | 73 | 1005.3 |
| 20260507201004 | 66 | 315 | 2.0 | 4.0 | 0.00 | 0.00 | 0.00 | 72 | 1005.3 |
| 20260507200503 | 66 | 315 | 2.0 | 4.0 | 0.00 | 0.00 | 0.00 | 72 | 1005.3 |
| 20260507200004 | 66 | 315 | 2.0 | 4.0 | 0.00 | 0.00 | 0.00 | 72 | 1005.3 |
| 20260507195503 | 66 | 315 | 3.0 | 4.0 | 0.00 | 0.00 | 0.00 | 72 | 1005.3 |
| 20260507195003 | 67 | 315 | 4.0 | 7.0 | 0.00 | 0.00 | 0.00 | 72 | 1005.3 |
| 20260507194505 | 67 | 313 | 4.0 | 7.0 | 0.00 | 0.00 | 0.00 | 71 | 1005.3 |
| 20260507194003 | 67 | 309 | 4.0 | 5.0 | 0.00 | 0.00 | 0.00 | 72 | 1005.3 |
| 20260507193503 | 67 | 305 | 4.0 | 5.0 | 0.00 | 0.00 | 0.00 | 71 | 1005.3 |
| 20260507193217 | 67 | 306 | 4.0 | 5.0 | 0.00 | 0.00 | 0.00 | 71 | 1005.3 |
| 20260507192503 | 67 | 313 | 5.0 | 7.0 | 0.00 | 0.00 | 0.00 | 70 | 1005.3 |